Time,TemperatureF,DewpointF,PressureIn,WindDirection,WindDirectionDegrees,WindSpeedMPH,WindSpeedGustMPH,Humidity,HourlyPrecipIn,Conditions,Clouds,dailyrainin,SolarRadiationWatts/m^2,SoftwareType,DateUTC
2013-09-19 00:01:00,53.0,53.0,29.78,NNW,328,2.0,5.0,100,0.00,,,0.00,0.000000,,2013-09-19 04:01:00,
2013-09-19 00:14:00,53.0,53.0,29.78,NNW,328,2.0,5.0,100,0.00,,,0.00,0.000000,,2013-09-19 04:14:00,
2013-09-19 00:44:00,51.0,51.0,29.78,NNW,331,4.0,5.0,100,0.00,,,0.00,0.000000,,2013-09-19 04:44:00,
2013-09-19 00:54:00,51.0,51.0,29.78,NNW,331,4.0,5.0,100,0.00,,,0.00,0.000000,,2013-09-19 04:54:00,
2013-09-19 01:03:00,51.0,51.0,29.78,NNW,331,4.0,5.0,100,0.00,,,0.00,0.000000,,2013-09-19 05:03:00,
2013-09-19 01:13:00,51.0,51.0,29.78,NNW,331,4.0,5.0,100,0.00,,,0.00,0.000000,,2013-09-19 05:13:00,
2013-09-19 01:43:00,50.0,50.0,29.77,NW,305,1.0,5.0,100,0.00,,,0.00,0.000000,,2013-09-19 05:43:00,
2013-09-19 01:52:00,50.0,50.0,29.77,NW,305,1.0,5.0,100,0.00,,,0.00,0.000000,,2013-09-19 05:52:00,
2013-09-19 02:02:00,50.0,50.0,29.77,NW,305,1.0,5.0,100,0.00,,,0.00,0.000000,,2013-09-19 06:02:00,
2013-09-19 02:12:00,50.0,50.0,29.77,NW,305,1.0,5.0,100,0.00,,,0.00,0.000000,,2013-09-19 06:12:00,
2013-09-19 02:43:00,51.0,51.0,29.76,NW,304,1.0,5.0,100,0.00,,,0.00,0.000000,,2013-09-19 06:43:00,
2013-09-19 02:52:00,51.0,51.0,29.76,NW,304,1.0,5.0,100,0.00,,,0.00,0.000000,,2013-09-19 06:52:00,
2013-09-19 03:02:00,51.0,51.0,29.76,NW,304,1.0,5.0,100,0.00,,,0.00,0.000000,,2013-09-19 07:02:00,
2013-09-19 03:12:00,51.0,51.0,29.76,NW,304,1.0,5.0,100,0.00,,,0.00,0.000000,,2013-09-19 07:12:00,
2013-09-19 03:42:00,51.0,51.0,29.75,WNW,297,1.0,3.0,100,0.00,,,0.00,0.000000,,2013-09-19 07:42:00,
2013-09-19 03:52:00,51.0,51.0,29.75,WNW,297,1.0,3.0,100,0.00,,,0.00,0.000000,,2013-09-19 07:52:00,
2013-09-19 04:02:00,51.0,51.0,29.75,WNW,297,1.0,3.0,100,0.00,,,0.00,0.000000,,2013-09-19 08:02:00,
2013-09-19 04:12:00,51.0,51.0,29.75,WNW,297,1.0,3.0,100,0.00,,,0.00,0.000000,,2013-09-19 08:12:00,
2013-09-19 04:42:00,53.0,53.0,29.75,NE,48,2.0,5.0,100,0.00,,,0.00,0.000000,,2013-09-19 08:42:00,
2013-09-19 04:52:00,53.0,53.0,29.75,NE,48,2.0,5.0,100,0.00,,,0.00,0.000000,,2013-09-19 08:52:00,
2013-09-19 05:02:00,53.0,53.0,29.75,NE,48,2.0,5.0,100,0.00,,,0.00,0.000000,,2013-09-19 09:02:00,
2013-09-19 05:11:00,53.0,53.0,29.75,NE,48,2.0,5.0,100,0.00,,,0.00,0.000000,,2013-09-19 09:11:00,
2013-09-19 05:43:00,55.0,55.0,29.75,WNW,295,1.0,5.0,100,0.00,,,-99.99,0.000000,,2013-09-19 09:43:00,
2013-09-19 05:53:00,55.0,55.0,29.75,WNW,295,1.0,5.0,100,0.00,,,-99.99,0.000000,,2013-09-19 09:53:00,
2013-09-19 06:04:00,55.0,55.0,29.75,WNW,295,1.0,5.0,100,0.00,,,-99.99,0.000000,,2013-09-19 10:04:00,
2013-09-19 06:12:00,55.0,55.0,29.75,WNW,295,1.0,5.0,100,0.00,,,-99.99,0.000000,,2013-09-19 10:12:00,
2013-09-19 06:43:00,54.0,54.0,29.76,NNW,336,2.0,3.0,100,0.00,,,0.00,0.000000,,2013-09-19 10:43:00,
2013-09-19 06:52:00,54.0,54.0,29.76,NNW,336,2.0,3.0,100,0.00,,,0.00,0.000000,,2013-09-19 10:52:00,
2013-09-19 07:03:00,54.0,54.0,29.76,NNW,336,2.0,3.0,100,0.00,,,0.00,0.000000,,2013-09-19 11:03:00,
2013-09-19 07:12:00,54.0,54.0,29.76,NNW,336,2.0,3.0,100,0.00,,,0.00,0.000000,,2013-09-19 11:12:00,
2013-09-19 07:42:00,56.0,56.0,29.76,NNW,330,2.0,3.0,100,0.00,,,0.00,0.000000,,2013-09-19 11:42:00,
2013-09-19 07:53:00,56.0,56.0,29.76,NNW,330,2.0,3.0,100,0.00,,,0.00,0.000000,,2013-09-19 11:53:00,
2013-09-19 08:01:00,56.0,56.0,29.76,NNW,330,2.0,3.0,100,0.00,,,0.00,0.000000,,2013-09-19 12:01:00,
2013-09-19 08:11:00,56.0,56.0,29.76,NNW,330,2.0,3.0,100,0.00,,,0.00,0.000000,,2013-09-19 12:11:00,
2013-09-19 08:43:00,57.0,57.0,29.76,West,271,0.0,2.0,100,0.00,,,0.00,25.000000,,2013-09-19 12:43:00,
2013-09-19 08:52:00,57.0,57.0,29.76,West,271,0.0,2.0,100,0.00,,,0.00,25.000000,,2013-09-19 12:52:00,
2013-09-19 09:02:00,57.0,57.0,29.76,West,271,0.0,2.0,100,0.00,,,0.00,25.000000,,2013-09-19 13:02:00,
2013-09-19 09:11:00,57.0,57.0,29.76,West,271,0.0,2.0,100,0.00,,,0.00,25.000000,,2013-09-19 13:11:00,
2013-09-19 09:43:00,61.0,60.0,29.78,NW,314,2.0,3.0,98,0.00,,,0.00,55.000000,,2013-09-19 13:43:00,
2013-09-19 09:52:00,61.0,60.0,29.78,NW,314,2.0,3.0,98,0.00,,,0.00,55.000000,,2013-09-19 13:52:00,
2013-09-19 10:02:00,61.0,60.0,29.78,NW,314,2.0,3.0,98,0.00,,,0.00,55.000000,,2013-09-19 14:02:00,
2013-09-19 10:12:00,61.0,60.0,29.78,NW,314,2.0,3.0,98,0.00,,,0.00,55.000000,,2013-09-19 14:12:00,
2013-09-19 10:42:00,65.0,60.0,29.78,SSE,158,2.0,5.0,84,0.00,,,0.00,148.000000,,2013-09-19 14:42:00,
2013-09-19 10:52:00,65.0,60.0,29.78,SSE,158,2.0,5.0,84,0.00,,,0.00,148.000000,,2013-09-19 14:52:00,
2013-09-19 11:02:00,65.0,60.0,29.78,SSE,158,2.0,5.0,84,0.00,,,0.00,148.000000,,2013-09-19 15:02:00,
2013-09-19 11:11:00,65.0,60.0,29.78,SSE,158,2.0,5.0,84,0.00,,,0.00,148.000000,,2013-09-19 15:11:00,
2013-09-19 11:43:00,67.0,60.0,29.78,WNW,284,2.0,6.0,77,0.00,,,0.00,237.000000,,2013-09-19 15:43:00,
2013-09-19 11:54:00,67.0,60.0,29.78,WNW,284,2.0,6.0,77,0.00,,,0.00,237.000000,,2013-09-19 15:54:00,
2013-09-19 12:04:00,67.0,60.0,29.78,WNW,284,2.0,6.0,77,0.00,,,0.00,237.000000,,2013-09-19 16:04:00,
2013-09-19 12:13:00,67.0,60.0,29.78,WNW,284,2.0,6.0,77,0.00,,,0.00,237.000000,,2013-09-19 16:13:00,
2013-09-19 13:42:00,78.0,59.0,29.75,ENE,71,2.0,10.0,52,0.00,,,0.00,503.000000,,2013-09-19 17:42:00,
2013-09-19 13:53:00,78.0,59.0,29.75,ENE,71,2.0,10.0,52,0.00,,,0.00,503.000000,,2013-09-19 17:53:00,
2013-09-19 14:02:00,78.0,59.0,29.75,ENE,71,2.0,10.0,52,0.00,,,0.00,503.000000,,2013-09-19 18:02:00,
2013-09-19 14:11:00,78.0,59.0,29.75,ENE,71,2.0,10.0,52,0.00,,,0.00,503.000000,,2013-09-19 18:11:00,
2013-09-19 14:42:00,77.0,59.0,29.73,WSW,244,4.0,9.0,54,0.00,,,0.00,454.000000,,2013-09-19 18:42:00,
2013-09-19 14:52:00,77.0,59.0,29.73,WSW,244,4.0,9.0,54,0.00,,,0.00,454.000000,,2013-09-19 18:52:00,
2013-09-19 15:02:00,77.0,59.0,29.73,WSW,244,4.0,9.0,54,0.00,,,0.00,454.000000,,2013-09-19 19:02:00,
2013-09-19 15:12:00,77.0,59.0,29.73,WSW,244,4.0,9.0,54,0.00,,,0.00,454.000000,,2013-09-19 19:12:00,
2013-09-19 15:42:00,77.0,60.0,29.71,West,273,2.0,9.0,56,0.00,,,0.00,410.000000,,2013-09-19 19:42:00,
2013-09-19 15:52:00,77.0,60.0,29.71,West,273,2.0,9.0,56,0.00,,,0.00,410.000000,,2013-09-19 19:52:00,
2013-09-19 16:02:00,77.0,60.0,29.71,West,273,2.0,9.0,56,0.00,,,0.00,410.000000,,2013-09-19 20:02:00,
2013-09-19 16:12:00,77.0,60.0,29.71,West,273,2.0,9.0,56,0.00,,,0.00,410.000000,,2013-09-19 20:12:00,
2013-09-19 16:42:00,77.0,61.0,29.70,NNW,342,3.0,9.0,57,0.00,,,0.00,453.000000,,2013-09-19 20:42:00,
2013-09-19 16:52:00,77.0,61.0,29.70,NNW,342,3.0,9.0,57,0.00,,,0.00,453.000000,,2013-09-19 20:52:00,
2013-09-19 17:02:00,77.0,61.0,29.70,NNW,342,3.0,9.0,57,0.00,,,0.00,453.000000,,2013-09-19 21:02:00,
2013-09-19 17:12:00,77.0,61.0,29.70,NNW,342,3.0,9.0,57,0.00,,,0.00,453.000000,,2013-09-19 21:12:00,
2013-09-19 17:44:00,74.0,61.0,29.69,WNW,298,2.0,6.0,64,0.00,,,0.00,225.000000,,2013-09-19 21:44:00,
2013-09-19 17:55:00,74.0,61.0,29.69,WNW,298,2.0,6.0,64,0.00,,,0.00,225.000000,,2013-09-19 21:55:00,
2013-09-19 18:04:00,74.0,61.0,29.69,WNW,298,2.0,6.0,64,0.00,,,0.00,225.000000,,2013-09-19 22:04:00,
2013-09-19 18:14:00,74.0,61.0,29.69,WNW,298,2.0,6.0,64,0.00,,,0.00,225.000000,,2013-09-19 22:14:00,
2013-09-19 18:42:00,71.0,63.0,29.69,NNW,329,2.0,3.0,77,0.00,,,0.00,85.000000,,2013-09-19 22:42:00,
2013-09-19 18:53:00,71.0,63.0,29.69,NNW,329,2.0,3.0,77,0.00,,,0.00,85.000000,,2013-09-19 22:53:00,
2013-09-19 19:04:00,71.0,63.0,29.69,NNW,329,2.0,3.0,77,0.00,,,0.00,85.000000,,2013-09-19 23:04:00,
2013-09-19 19:12:00,71.0,63.0,29.69,NNW,329,2.0,3.0,77,0.00,,,0.00,85.000000,,2013-09-19 23:12:00,
2013-09-19 19:43:00,69.0,67.0,29.69,North,4,0.0,2.0,93,0.00,,,0.00,18.000000,,2013-09-19 23:43:00,
2013-09-19 19:53:00,69.0,67.0,29.69,North,4,0.0,2.0,93,0.00,,,0.00,18.000000,,2013-09-19 23:53:00,
2013-09-19 20:02:00,69.0,67.0,29.69,North,4,0.0,2.0,93,0.00,,,0.00,18.000000,,2013-09-20 00:02:00,
2013-09-19 20:12:00,69.0,67.0,29.69,North,4,0.0,2.0,93,0.00,,,0.00,18.000000,,2013-09-20 00:12:00,
2013-09-19 20:42:00,66.0,66.0,29.68,West,261,1.0,2.0,100,0.00,,,0.00,0.000000,,2013-09-20 00:42:00,
2013-09-19 20:52:00,66.0,66.0,29.68,West,261,1.0,2.0,100,0.00,,,0.00,0.000000,,2013-09-20 00:52:00,
2013-09-19 21:02:00,66.0,66.0,29.68,West,261,1.0,2.0,100,0.00,,,0.00,0.000000,,2013-09-20 01:02:00,
2013-09-19 21:12:00,66.0,66.0,29.68,West,261,1.0,2.0,100,0.00,,,0.00,0.000000,,2013-09-20 01:12:00,
2013-09-19 21:42:00,63.0,63.0,29.69,NE,34,1.0,3.0,100,0.00,,,0.00,0.000000,,2013-09-20 01:42:00,
2013-09-19 21:52:00,63.0,63.0,29.69,NE,34,1.0,3.0,100,0.00,,,0.00,0.000000,,2013-09-20 01:52:00,
2013-09-19 22:03:00,63.0,63.0,29.69,NE,34,1.0,3.0,100,0.00,,,0.00,0.000000,,2013-09-20 02:03:00,
2013-09-19 22:12:00,63.0,63.0,29.69,NE,34,1.0,3.0,100,0.00,,,0.00,0.000000,,2013-09-20 02:12:00,
2013-09-19 22:43:00,64.0,64.0,29.69,WNW,299,1.0,4.0,100,0.00,,,0.00,0.000000,,2013-09-20 02:43:00,
2013-09-19 22:53:00,64.0,64.0,29.69,WNW,299,1.0,4.0,100,0.00,,,0.00,0.000000,,2013-09-20 02:53:00,
2013-09-19 23:02:00,64.0,64.0,29.69,WNW,299,1.0,4.0,100,0.00,,,0.00,0.000000,,2013-09-20 03:02:00,
2013-09-19 23:12:00,64.0,64.0,29.69,WNW,299,1.0,4.0,100,0.00,,,0.00,0.000000,,2013-09-20 03:12:00,
2013-09-19 23:45:00,63.0,63.0,29.67,NNE,19,1.0,2.0,100,0.00,,,0.00,0.000000,,2013-09-20 03:45:00,
2013-09-19 23:56:00,63.0,63.0,29.67,NNE,19,1.0,2.0,100,0.00,,,0.00,0.000000,,2013-09-20 03:56:00,